Location: Ab? ar R?sh Ba?r?
(24.1861°N, 32.8847°E)
Time: 13:01:37
(UTC+00:00)

H-2A R/B - Visible Passes

Search period start: 29 May 2022 00:00
Search period end: 08 June 2022 00:00
Orbit: 575 x 654 km, 98.5° (Epoch: 28 May)

Date Brightness Start Highest point End Pass type
(mag) Time Alt. Az. Time Alt. Az. Time Alt. Az.
29 May 3.9 18:21:52 10° NNW 18:25:24 29° WNW 18:29:00 10° SW visible
30 May 3.2 17:01:57 10° NE 17:05:08 21° E 17:08:20 10° SSE visible
30 May 4.6 18:37:59 10° NNW 18:40:51 18° WNW 18:43:45 10° WSW visible
31 May 2.6 17:16:56 10° NE 17:20:42 34° E 17:24:30 10° SSE visible
31 May 5.1 18:54:45 10° NW 18:56:16 12° WNW 18:57:48 10° W visible
01 Jun 2.0 17:32:10 10° NNE 17:36:14 55° ESE 17:40:21 10° S visible
02 Jun 1.9 17:47:35 10° NNE 17:51:45 89° W 17:55:58 10° SSW visible
03 Jun 2.7 18:03:11 10° N 18:07:14 54° WNW 18:11:22 10° SSW visible
04 Jun 3.7 18:18:58 10° N 18:22:43 33° WNW 18:26:32 10° SW visible
05 Jun 3.4 16:59:24 10° NE 17:02:24 19° E 17:05:26 10° SE visible
05 Jun 4.4 18:34:57 10° NNW 18:38:09 22° WNW 18:41:24 10° WSW visible
06 Jun 2.8 17:14:16 10° NE 17:17:57 30° E 17:21:42 10° SSE visible
06 Jun 5.0 18:51:23 10° NW 18:53:34 14° WNW 18:55:47 10° WSW visible
07 Jun 2.2 17:29:25 10° NNE 17:33:29 48° ESE 17:37:37 10° S visible
